Weather in Severnoe

Russia / Orenburg Oblast     54°05′34″N   52°32′24″E
temp.,
°C
wind,
m/s
gust,
m/s
humid.,
%
clouds,
%
prec.,
mm/h
press.,
hPa
HPBL,
m
23 january, sat
sat2323:00−20nnw1210084 0.1 102320
02:00−21ene1110024 0.0 102520
05:00−21ese129942 0.0 102620
08:00−17sse2497100 0.0 102696
11:00−17sse5895100 0.0 1027248
14:00−13sse6995100 0.4 1027345
17:00−12sse61094100 0.6 1027374
20:00−12sse61194100 0.3 1026344
24 january, sun
sun2423:00−12sse61095100 0.5 1026298
02:00−8s4896100 0.4 1023236
05:00−5s4697100 1.3 1022181
08:00−8sse3696100 0.6 1024168
11:00−3s3598100 2.0 1024152
14:00+1sw59100100 0.1 1025353
17:00+1sw51099100 0.1 1025300
20:000ssw5996100 0.3 1027313
25 january, mon
mon2523:00−2sw51196100 0.3 1028375
02:00−3ssw51097100 0.1 1029283
05:00−3sw5119898 0.0 1029360
08:00−3ssw6998100 0.0 1031397
11:00−3ssw5898100 0.0 1031343
14:00−2ssw5797100 0.0 1031430
17:00−1ssw5995100 0.1 1031581
20:00−2ssw5893100 0.0 1032488
26 january, tue
tue2623:00−2s5993100 0.1 1031552
02:00−3s51095100 0.0 1031611
05:00−3s61095100 0.1 1030617
08:00−3s51095100 0.1 1029580
11:00−4s61095100 0.1 1030451
14:00−5s61096100 0.1 1030441
17:00−5s61095100 0.1 1029411
20:00−8sse61295100 0.0 1029311
27 january, wed
wed2723:00−8s61494100 0.0 1028357
02:00−8s51195100 0.0 1028340
05:00−8s61095100 0.1 1028320
08:00−5s61195100 0.3 1025429
11:00−8sse61395100 0.1 1027358
14:00−6s61093100 0.0 1027383
17:00−5s369799 0.2 1028290
20:00−9sse5119216 0.0 1027236